Content
SEND FEEDBACK

Daily
Averages
Monthly
Summary
United States of America

INGLEWOOD, CALIFORNIA


Home > North America > United States > California
Elevation: 12 feet     Latitude: 33 56N     Longitude: 118 23W

WEATHER
 
SELECT A DAY
Number of Records: 194,375;   Date Range: 1/1/95 - 10/21/14
 
SHARE

PRINT THIS DATA

[ ← Previous Day ]
WEATHER ALMANAC - JANUARY 31, 2013
[ Next Day → ]
[ °C ]   °F
Weather ElementAverageHighLow
Temperature54.4 °F71.1 °F (11:53 am) (6:53 am)
Dewpoint42.1 °F51.1 °F (4:53 pm) (7:00 pm)
Humidity63.2 %93 % (2:53 am)35 % (10:53 am)
Barometer27.75 in30.23 in (1:53 am) (7:00 pm)
Wind Speed3.4 mph11.5 mph (1:53 pm)
Weather ElementAverage
Visibility10 mi
Wind DirectionESE (102 °)

Weather ElementTotal
Precipitation---
Heating Degree Days29.5 (Base 65)
Averaged from 25 records on January 31, 2013
WEATHER CONDITIONS BREAKOUT
WIND DIRECTION BREAKOUT
WEATHER BY HOUR - JANUARY 31, 2013
[ °C ]   °F
Local TimeTemperatureDewpointHumidityBarometerVisibilityWind DirectionWind SpeedGust SpeedPrecipitationEventsConditions
1:53 AM51.8 °F48.2 °F88 %30.23 in10.0 miCalmPartly Cloudy
2:53 AM48.2 °F46.4 °F93 %30.21 in10.0 miCalmPartly Cloudy
3:53 AM51.8 °F44.6 °F76 %30.19 in10.0 miNE (50°)3.5 mphClear
4:53 AM51.8 °F42.8 °F71 %30.18 in10.0 miENE (70°)3.5 mphClear
5:53 AM48.2 °F39.2 °F71 %30.18 in10.0 miCalmPartly Cloudy
6:53 AM0.0 °F0.0 °F10.0 miCalmPartly Cloudy
7:53 AM53.6 °F42.8 °F67 %30.20 in10.0 miCalmScattered Clouds
8:53 AM60.8 °F39.2 °F45 %30.21 in10.0 miCalmPartly Cloudy
9:33 AM62.6 °F42.8 °F48 %30.22 in10.0 miCalmPartly Cloudy
9:53 AM64.0 °F41.0 °F43 %30.23 in10.0 miCalmPartly Cloudy
10:53 AM69.1 °F39.9 °F35 %30.21 in10.0 miCalmClear
11:53 AM71.1 °F43.0 °F36 %30.19 in10.0 miWest (270°)4.6 mphClear
12:53 PM66.9 °F46.0 °F47 %30.15 in10.0 miWest (270°)9.2 mphClear
1:53 PM64.9 °F44.1 °F47 %30.13 in10.0 miWest (270°)11.5 mphPartly Cloudy
2:53 PM63.0 °F46.9 °F56 %30.12 in10.0 miWest (270°)11.5 mphPartly Cloudy
3:53 PM62.1 °F48.9 °F62 %30.11 in10.0 miWSW (250°)11.5 mphPartly Cloudy
4:53 PM60.1 °F51.1 °F72 %30.11 in10.0 miWSW (250°)9.2 mphPartly Cloudy
5:53 PM59.0 °F48.9 °F69 %30.11 in10.0 miWest (260°)6.9 mphPartly Cloudy
6:53 PM61.0 °F48.9 °F64 %30.12 in10.0 miSW (230°)3.5 mphPartly Cloudy
7:53 PM60.1 °F50.0 °F69 %30.12 in10.0 miWest (280°)3.5 mphPartly Cloudy
8:53 PM59.0 °F50.0 °F72 %30.13 in10.0 miCalmPartly Cloudy
9:53 PM57.9 °F50.0 °F75 %30.12 in10.0 miCalmClear
10:53 PM59.0 °F48.0 °F67 %30.12 in10.0 miCalmClear
11:00 PM0.0 °F0.0 °FNorth
11:53 PM55.0 °F48.9 °F80 %30.12 in10.0 miEast (80°)3.5 mphClear
Hourly data recorded from KLAX, located miles away from Inglewood, California







STORIES FROM OUR PARTNERS